Theta_e
309 309 312 312 314 313 312 313 316 317 321 322 324 326 326 327 326 321 319 322 325 329 332 335 335 334 330 329 326 319 316 322 321 320 321 318 317 316 315 315 314 311 311
307 307 307 310 310 308 309 311 313 314 317 320 321 322 325 326 328 325 324 324 325 327 329 330 331 336 331 328 326 321 319 323 321 319 317 317 315 314 313 310 308 308 308
309 308 308 307 307 306 307 310 310 312 313 315 317 320 321 321 325 325 324 325 325 325 328 328 329 330 327 328 327 323 321 326 323 319 318 318 315 313 311 310 309 309 309
310 308 306 305 306 306 307 308 308 310 311 311 314 317 320 319 322 323 325 326 326 326 328 327 327 327 327 326 327 325 325 325 321 319 318 315 313 313 311 308 307 308 307
307 306 305 306 305 306 307 307 307 307 308 311 314 315 314 316 321 319 319 321 323 326 327 327 326 326 326 325 326 323 324 325 323 320 316 315 312 310 309 310 308 307 307
305 305 304 304 304 304 304 305 305 305 305 306 308 311 311 316 309 306 311 314 317 322 322 325 326 324 323 318 320 319 322 326 324 321 318 315 315 313 312 310 308 305 304
303 304 303 303 302 302 302 303 301 302 302 302 304 306 306 307 306 303 304 309 310 312 315 318 323 327 323 326 317 317 317 316 316 326 322 321 316 315 313 310 309 307 301
299 300 300 300 299 299 298 298 297 298 299 300 301 302 306 309 305 303 300 304 307 309 313 315 317 321 325 324 324 322 323 323 321 321 324 324 324 318 315 313 311 305 304
298 298 299 298 297 297 295 294 294 295 295 296 299 300 300 304 303 302 300 303 305 306 309 311 314 318 314 308 323 323 321 323 317 313 311 309 309 308 313 311 307 305 303
297 297 297 296 296 295 295 293 293 293 294 296 296 296 299 299 300 300 302 305 303 303 304 308 308 309 307 304 316 321 319 321 322 322 317 309 311 310 309 317 312 309 302
297 297 297 297 296 296 296 296 295 294 293 293 294 294 295 296 298 299 299 302 303 303 304 305 309 303 301 300 303 322 320 321 319 322 322 317 317 319 317 318 316 316 307
297 297 296 296 296 296 295 294 293 293 292 291 290 290 293 295 298 298 297 297 300 300 301 303 307 303 300 299 300 304 304 307 323 322 321 319 318 320 319 320 319 319 316
296 295 294 294 293 294 293 292 292 293 292 292 292 293 293 295 295 297 296 296 298 301 301 301 299 298 297 299 299 301 301 313 318 318 318 318 319 321 323 321 316 313 310
292 291 292 291 291 292 292 292 291 290 290 291 291 291 293 295 295 296 300 298 298 295 296 296 299 301 301 305 306 303 307 311 315 318 319 320 320 319 319 320 314 310 307
291 291 290 291 291 291 291 291 290 291 291 290 290 291 290 290 293 294 295 296 296 295 295 294 297 305 306 307 309 310 310 311 312 316 318 319 319 318 319 318 315 310 306
290 290 290 290 290 290 289 289 292 291 291 291 291 290 291 291 292 292 292 292 292 292 294 295 295 297 305 306 306 307 310 309 311 315 316 319 319 318 318 318 315 313 307
289 289 289 289 289 288 288 288 287 290 291 291 290 290 290 290 291 291 291 291 291 291 293 293 294 297 297 307 306 307 307 310 312 312 314 317 318 319 314 318 315 312 309
290 291 289 289 289 288 288 288 288 287 287 288 291 290 291 290 290 290 290 290 290 290 292 293 294 297 298 301 304 304 308 311 312 314 313 314 318 318 318 318 316 313 310
290 289 289 289 289 289 288 288 288 288 288 288 290 290 290 290 290 290 290 290 291 291 292 294 295 297 299 301 305 306 305 308 306 309 310 315 315 318 318 319 316 306 305
290 290 290 289 289 288 289 288 288 288 288 288 288 289 290 290 289 290 291 290 291 292 292 294 296 297 299 300 304 303 303 304 305 306 307 309 314 316 316 318 318 311 309
290 290 288 289 289 289 289 288 288 287 287 287 288 290 287 288 289 289 290 291 293 293 294 294 296 297 298 300 303 304 302 303 304 305 307 310 312 314 314 317 318 313 312
289 289 290 290 290 290 289 289 288 287 287 286 287 288 287 288 289 289 290 291 293 294 297 296 295 295 298 299 301 303 301 302 304 306 307 308 310 311 313 315 317 314 311
289 289 290 290 289 288 288 288 287 287 286 286 286 286 286 287 288 290 290 291 292 293 295 296 297 297 296 298 302 303 303 303 305 308 307 310 310 310 312 312 313 314 310
290 290 289 289 288 287 287 286 286 285 285 285 286 286 286 286 287 288 290 292 293 294 295 295 296 297 300 298 297 301 303 306 306 305 305 308 310 306 311 312 312 313 310
290 289 289 288 287 286 286 285 285 285 285 285 285 285 286 286 287 287 289 291 291 293 294 295 295 297 298 300 300 298 296 289 300 297 306 307 310 311 312 312 312 312 312
289 288 288 287 286 285 285 284 284 284 284 284 284 285 286 286 286 287 288 289 290 291 294 295 297 298 299 299 301 294 289 288 294 293 305 307 307 311 311 312 313 312 311
Wind_Speed
7 6 7 6 6 6 5 5 5 4 5 5 5 6 6 6 6 5 6 4 5 3 4 4 6 5 4 4 3 2 2 4 7 2 3 3 3 5 4 2 4 2 2
6 5 6 6 6 7 6 5 5 4 4 5 5 5 6 7 6 5 7 6 8 6 6 5 4 1 4 1 2 5 4 5 6 9 4 3 3 4 5 4 3 3 2
4 2 5 6 6 6 6 6 6 3 4 4 5 4 5 7 6 5 5 6 8 9 8 5 0 4 2 2 1 5 3 2 8 8 6 3 2 4 3 2 3 3 4
6 7 8 8 7 7 6 7 7 7 7 6 4 4 4 6 7 6 6 5 9 8 4 4 4 3 5 3 3 5 5 5 7 9 5 5 2 3 3 3 3 2 3
5 7 7 7 6 6 7 6 6 6 7 8 6 1 1 4 5 6 6 6 7 6 2 5 6 6 9 10 7 4 6 6 8 9 8 4 5 4 8 4 5 3 4
7 6 5 6 6 7 6 6 6 6 6 6 8 7 5 2 5 7 6 5 7 6 5 6 9 11 14 12 13 10 9 12 11 8 8 10 9 7 7 6 5 5 5
5 5 7 8 8 7 6 6 6 6 6 6 6 7 7 8 10 7 6 4 5 6 6 6 6 6 12 16 12 13 14 13 7 10 13 11 9 12 12 9 9 7 4
5 5 5 7 8 8 7 5 5 4 4 5 6 7 6 6 13 13 5 5 5 6 6 7 8 10 9 13 15 10 12 12 6 8 8 10 9 13 15 11 11 5 3
5 5 6 7 9 8 7 5 6 4 2 4 6 6 6 8 12 13 7 6 6 7 7 7 7 10 11 13 12 15 16 11 8 17 4 5 6 10 10 9 8 7 3
5 6 5 6 9 11 11 6 4 4 5 5 5 6 8 8 12 15 11 6 9 8 7 8 9 10 13 13 12 14 12 12 12 9 9 7 7 11 17 12 10 11 4
5 7 9 12 11 12 13 12 10 8 7 6 6 6 7 8 10 16 17 8 8 9 8 5 6 10 13 14 14 12 16 13 11 9 11 2 2 5 10 8 12 10 6
10 10 11 11 10 10 13 12 10 10 7 7 6 5 6 7 10 10 10 10 6 5 8 5 7 15 13 13 9 13 11 7 10 10 12 12 9 5 8 10 11 6 1
7 9 10 11 11 11 12 12 10 9 8 8 8 7 5 6 5 10 7 6 3 2 4 9 14 17 16 12 11 13 11 8 6 8 9 12 12 12 9 7 4 6 7
11 11 11 11 12 11 9 9 9 9 8 8 8 8 7 6 5 4 4 3 1 5 8 10 12 11 11 10 5 5 5 6 8 7 7 7 8 6 9 9 6 5 4
10 10 11 9 10 11 10 9 9 10 10 9 9 8 8 9 8 8 8 6 7 7 7 7 7 7 6 8 7 5 4 5 6 6 5 5 6 9 10 10 9 8 5
10 8 8 9 8 9 10 10 12 16 18 17 17 14 10 16 15 16 18 19 14 13 5 7 8 7 7 8 6 6 6 7 8 7 7 9 9 9 10 9 9 10 11
9 10 8 10 8 9 9 10 12 10 15 16 16 17 18 18 18 18 16 16 15 9 8 8 8 7 6 8 7 7 6 6 9 8 8 7 8 8 9 10 12 10 10
9 15 8 8 8 9 9 10 9 11 11 10 8 11 13 17 18 15 14 9 5 6 8 9 8 7 6 7 4 4 4 5 7 7 7 6 8 9 11 13 14 13 12
9 8 8 8 8 10 9 9 9 10 11 11 9 8 9 11 13 13 13 7 8 7 7 8 9 8 7 6 5 4 4 5 4 5 4 4 6 8 11 14 15 17 14
9 15 13 9 9 9 8 8 9 9 10 10 10 9 7 6 6 6 5 6 7 7 7 8 9 8 7 7 4 4 4 4 3 4 3 3 4 5 10 14 16 15 15
8 9 10 9 8 9 9 9 9 9 10 9 10 10 10 10 8 7 7 7 6 8 8 8 8 9 7 7 5 4 4 4 5 4 4 4 3 4 6 8 15 15 15
8 8 9 9 9 9 9 10 9 10 10 10 10 10 11 9 9 8 7 7 7 7 6 8 7 8 8 8 7 5 5 5 5 5 4 4 4 3 2 12 7 17 14
8 9 10 9 9 12 10 10 10 10 10 10 10 9 8 8 8 7 7 7 7 7 6 6 6 7 7 5 5 6 5 7 7 5 4 3 5 5 2 7 3 10 15
9 10 11 10 10 11 10 11 10 12 11 10 10 9 8 8 9 8 8 7 6 6 6 6 6 8 5 6 5 3 4 4 5 6 6 2 3 5 6 3 2 3 11
9 10 10 11 11 11 12 11 11 10 10 10 9 9 9 8 8 8 8 7 5 7 8 8 7 8 8 7 6 8 6 6 6 6 3 3 3 7 8 7 6 5 8
10 11 10 10 10 11 11 12 11 11 10 10 9 9 9 8 8 8 7 7 6 7 7 6 6 9 9 8 6 7 9 8 6 6 4 4 2 8 10 11 13 8 10
Wind_Direction
42 34 30 12 21 41 34 7 9 359 347 357 360 346 347 318 290 244 234 241 258 259 282 259 251 206 242 197 202 198 172 130 125 109 98 131 120 129 115 124 119 119 172
41 18 23 8 7 3 8 352 346 7 334 334 340 352 343 340 330 270 259 253 248 243 237 260 283 63 193 287 205 222 245 135 127 144 141 160 145 153 151 154 173 172 219
15 17 28 354 340 327 322 316 311 339 313 329 327 320 336 336 337 323 250 253 252 247 250 214 316 314 13 138 248 205 190 172 135 144 146 139 124 152 137 148 206 191 201
346 358 4 347 330 330 347 342 337 330 326 328 298 316 328 335 332 341 348 310 263 243 223 252 247 247 285 276 210 226 187 173 129 143 133 147 120 137 145 157 192 196 212
21 8 359 344 354 24 29 17 28 29 3 323 302 210 344 330 313 320 330 334 329 322 265 254 246 223 244 242 241 201 165 189 157 151 153 155 148 163 200 171 188 184 218
29 25 10 1 358 16 9 1 8 4 9 6 351 324 311 262 299 315 331 339 325 304 291 293 266 242 249 236 208 178 190 175 186 167 168 178 182 166 181 188 172 189 221
20 23 9 350 355 357 358 10 2 349 340 340 331 331 318 302 289 269 284 302 311 300 284 276 269 261 254 256 208 196 202 218 250 198 173 177 177 173 176 173 187 192 200
5 353 353 342 337 343 345 331 323 307 321 330 312 305 300 292 308 294 273 255 258 270 286 283 276 272 260 244 243 221 217 205 194 262 198 169 192 165 179 183 175 148 76
351 339 343 326 322 312 314 317 293 280 294 282 274 301 312 303 299 295 294 296 266 267 273 278 279 282 246 226 220 216 221 215 192 243 88 353 129 148 148 130 157 153 134
327 311 315 318 316 315 312 303 270 272 272 285 272 274 270 277 280 284 276 267 283 280 259 264 267 267 265 229 221 224 226 215 208 226 191 190 200 163 169 182 172 172 138
293 315 317 316 314 311 313 312 316 301 293 265 263 259 258 256 262 263 268 263 264 273 271 254 263 258 258 254 221 239 223 224 219 236 243 274 171 146 191 186 204 179 157
321 317 315 311 311 315 305 302 296 288 282 280 268 255 252 258 263 272 240 229 251 239 264 268 257 260 250 250 224 235 231 202 223 220 216 220 225 198 206 197 208 210 279
320 316 316 316 312 306 303 306 304 304 300 299 293 286 267 252 251 276 221 202 253 265 301 297 281 284 290 264 225 232 232 232 232 195 205 205 198 191 182 163 117 94 63
326 321 318 314 308 306 301 299 295 296 296 293 291 292 290 285 278 280 230 219 274 319 315 313 304 267 260 249 237 220 200 217 210 223 208 195 182 168 176 170 152 152 105
319 311 305 302 300 299 294 293 290 285 285 288 286 285 282 273 270 259 260 269 291 284 303 292 302 294 238 230 227 211 197 213 214 217 207 203 190 185 185 173 160 157 144
311 309 305 304 299 296 295 292 272 271 278 278 275 271 276 271 269 259 260 265 255 262 265 263 278 282 261 232 213 210 188 209 222 204 212 213 205 199 189 179 166 178 152
306 305 301 301 299 299 300 299 303 295 284 279 276 276 276 270 266 260 255 256 248 214 227 249 257 262 276 260 214 206 198 186 217 210 211 211 213 206 193 179 186 175 164
304 300 298 297 296 296 294 293 293 297 300 299 269 267 272 278 276 258 248 245 249 214 230 237 242 244 255 282 222 199 188 167 214 207 210 208 222 212 197 193 184 179 169
302 294 295 295 293 288 289 288 288 289 291 290 293 274 267 269 285 271 250 234 233 227 222 231 236 227 239 252 252 216 189 189 186 210 210 216 220 238 216 204 181 173 167
301 292 287 289 290 288 288 289 289 290 292 294 293 294 293 285 286 288 250 224 218 224 218 229 234 232 221 230 217 222 214 184 198 212 210 220 242 240 248 232 188 167 173
298 297 290 289 292 291 290 288 288 292 290 290 291 293 283 280 278 267 262 260 249 220 218 220 229 235 228 225 218 216 199 198 196 200 205 200 217 250 246 283 182 169 169
302 299 300 302 303 301 300 298 291 291 291 291 293 292 284 280 270 266 258 258 256 249 231 219 220 226 228 222 217 201 200 205 198 188 195 195 199 193 273 234 238 172 161
308 304 309 310 307 304 305 303 301 298 295 295 294 292 290 283 285 269 259 256 252 251 238 231 231 227 225 232 222 209 191 214 210 176 161 217 205 197 110 273 149 177 164
310 319 316 314 311 311 309 309 305 300 298 296 295 291 287 284 280 280 276 261 253 249 260 236 228 224 235 214 207 197 201 188 148 138 127 152 230 185 180 223 221 154 158
320 322 318 316 315 315 313 312 308 303 300 298 297 294 290 285 279 274 274 264 256 258 236 241 223 224 220 222 218 171 181 160 144 147 129 63 247 208 192 192 188 182 140
328 323 321 318 318 316 314 313 312 311 309 305 299 294 290 284 278 273 269 264 258 268 232 241 219 212 209 212 233 181 170 165 165 132 105 28 329 208 191 183 183 177 166